| time (UTC) | temp F | wind direction | speed knots | gust knots | rain 1hr in | rain 24hr in | rain mn in | humidity % | barometer mb |
| 20260509111552 | 69 | 257 | 0.0 | 0.0 | 0.00 | 0.00 | 0.00 | 95 | 1013.3 |
| 20260509110051 | 69 | 258 | 0.0 | 0.0 | 0.00 | 0.00 | 0.00 | 95 | 1012.8 |
| 20260509104551 | 69 | 258 | 0.0 | 0.0 | 0.00 | 0.00 | 0.00 | 95 | 1012.7 |
| 20260509103051 | 69 | 258 | 0.0 | 0.0 | 0.00 | 0.00 | 0.00 | 95 | 1013.0 |
| 20260509101555 | 69 | 257 | 0.0 | 0.0 | 0.00 | 0.00 | 0.00 | 95 | 1012.8 |
| 20260509100049 | 68 | 256 | 0.0 | 0.0 | 0.00 | 0.00 | 0.00 | 95 | 1012.6 |
| 20260509094549 | 68 | 257 | 0.0 | 0.0 | 0.00 | 0.00 | 0.00 | 94 | 1012.2 |
| 20260509093055 | 68 | 260 | 0.0 | 0.0 | 0.00 | 0.00 | 0.00 | 94 | 1011.6 |
| 20260509091548 | 68 | 260 | 0.0 | 0.0 | 0.00 | 0.00 | 0.00 | 94 | 1011.5 |
| 20260509090043 | 68 | 260 | 0.0 | 0.0 | 0.00 | 0.00 | 0.00 | 94 | 1012.2 |
| 20260509084551 | 68 | 260 | 0.0 | 0.0 | 0.00 | 0.01 | 0.00 | 94 | 1012.5 |
| 20260509083039 | 68 | 263 | 0.0 | 0.0 | 0.00 | 0.01 | 0.00 | 93 | 1013.0 |
| 20260509081539 | 69 | 264 | 0.0 | 0.0 | 0.00 | 0.01 | 0.00 | 93 | 1013.5 |
| 20260509080047 | 69 | 266 | 0.0 | 0.0 | 0.00 | 0.01 | 0.00 | 93 | 1014.0 |
| 20260509074537 | 69 | 270 | 0.0 | 0.0 | 0.00 | 0.01 | 0.00 | 92 | 1014.5 |
| 20260509073037 | 69 | 271 | 0.0 | 0.0 | 0.00 | 0.01 | 0.00 | 92 | 1014.5 |
| 20260509071532 | 69 | 272 | 0.0 | 0.0 | 0.00 | 0.01 | 0.00 | 92 | 1014.4 |
| 20260509070032 | 69 | 272 | 0.0 | 0.0 | 0.00 | 0.01 | 0.00 | 91 | 1014.3 |
| 20260509064530 | 68 | 273 | 0.0 | 0.0 | 0.00 | 0.01 | 0.00 | 91 | 1014.2 |
| 20260509063029 | 68 | 273 | 0.0 | 0.0 | 0.00 | 0.01 | 0.00 | 90 | 1013.9 |
| 20260509061526 | 69 | 273 | 0.0 | 0.0 | 0.00 | 0.01 | 0.00 | 89 | 1014.2 |
| 20260509060126 | 69 | 264 | 0.0 | 0.0 | 0.00 | 0.01 | 0.00 | 89 | 1014.3 |
| 20260509054527 | 69 | 274 | 0.0 | 0.0 | 0.00 | 0.01 | 0.00 | 87 | 1014.5 |
| 20260509053033 | 70 | 274 | 0.0 | 0.0 | 0.00 | 0.01 | 0.00 | 88 | 1014.4 |
| 20260509051528 | 70 | 274 | 0.0 | 0.0 | 0.00 | 0.01 | 0.00 | 88 | 1014.6 |
| 20260509050016 | 70 | 274 | 0.0 | 0.0 | 0.00 | 0.01 | 0.00 | 88 | 1014.6 |
| 20260509044512 | 70 | 274 | 0.0 | 0.0 | 0.00 | 0.01 | 0.00 | 88 | 1014.0 |
| 20260509043011 | 69 | 274 | 0.0 | 0.0 | 0.00 | 0.01 | 0.00 | 88 | 1013.2 |
| 20260509041511 | 70 | 274 | 0.0 | 0.0 | 0.00 | 0.01 | 0.00 | 88 | 1014.2 |
| 20260509040010 | 70 | 274 | 0.0 | 0.0 | 0.00 | 0.01 | 0.00 | 87 | 1014.8 |
| 20260509034507 | 70 | 274 | 0.0 | 0.0 | 0.00 | 0.01 | 0.00 | 86 | 1014.5 |
| 20260509033123 | 71 | 274 | 0.0 | 0.0 | 0.00 | 0.01 | 0.00 | 86 | 1014.4 |
| 20260509031504 | 71 | 274 | 0.0 | 0.0 | 0.00 | 0.01 | 0.00 | 86 | 1013.9 |
| 20260509030007 | 71 | 274 | 0.0 | 0.0 | 0.00 | 0.01 | 0.00 | 85 | 1013.8 |
| 20260509024503 | 71 | 274 | 0.0 | 0.0 | 0.00 | 0.01 | 0.00 | 85 | 1013.7 |
| 20260509023002 | 71 | 274 | 0.0 | 0.0 | 0.00 | 0.01 | 0.00 | 85 | 1013.6 |
| 20260509021600 | 71 | 274 | 0.0 | 0.0 | 0.00 | 0.01 | 0.00 | 83 | 1013.3 |
| 20260509020058 | 71 | 274 | 0.0 | 0.0 | 0.00 | 0.01 | 0.00 | 83 | 1013.0 |
| 20260509014556 | 71 | 274 | 0.0 | 0.0 | 0.00 | 0.01 | 0.00 | 82 | 1012.9 |
| 20260509013107 | 71 | 274 | 0.0 | 0.0 | 0.00 | 0.01 | 0.00 | 81 | 1012.8 |
| 20260509011555 | 71 | 274 | 0.0 | 0.0 | 0.00 | 0.01 | 0.00 | 81 | 1012.8 |
| 20260509010053 | 72 | 274 | 0.0 | 0.0 | 0.00 | 0.01 | 0.00 | 80 | 1012.4 |
| 20260509004556 | 72 | 274 | 0.0 | 0.0 | 0.00 | 0.01 | 0.00 | 80 | 1012.2 |
| 20260509003049 | 73 | 274 | 0.0 | 0.0 | 0.00 | 0.01 | 0.00 | 79 | 1012.1 |
| 20260509001546 | 73 | 260 | 0.0 | 0.0 | 0.00 | 0.01 | 0.00 | 77 | 1012.1 |
| 20260509000047 | 74 | 262 | 0.0 | 1.7 | 0.00 | 0.01 | 0.00 | 76 | 1012.3 |
| 20260508234544 | 75 | 260 | 0.0 | 0.0 | 0.00 | 0.01 | 0.00 | 75 | 1012.4 |
| 20260508233051 | 75 | 260 | 0.0 | 3.5 | 0.00 | 0.01 | 0.00 | 74 | 1012.5 |
| 20260508231546 | 75 | 259 | 0.0 | 0.9 | 0.00 | 0.01 | 0.00 | 74 | 1012.8 |
| 20260508230053 | 76 | 260 | 0.0 | 2.6 | 0.00 | 0.01 | 0.00 | 73 | 1012.9 |
| 20260508224542 | 76 | 266 | 0.0 | 2.6 | 0.00 | 0.01 | 0.00 | 72 | 1012.8 |
| 20260508223041 | 77 | 256 | 0.0 | 0.9 | 0.00 | 0.01 | 0.00 | 72 | 1012.5 |
| 20260508221540 | 77 | 262 | 0.0 | 0.9 | 0.00 | 0.01 | 0.00 | 71 | 1012.4 |
| 20260508220039 | 76 | 270 | 0.0 | 0.0 | 0.00 | 0.01 | 0.00 | 70 | 1011.7 |
| 20260508214538 | 76 | 262 | 0.0 | 0.0 | 0.00 | 0.01 | 0.00 | 75 | 1012.5 |
| 20260508213035 | 74 | 262 | 0.0 | 0.0 | 0.00 | 0.01 | 0.00 | 75 | 1013.5 |
| 20260508211533 | 75 | 262 | 0.0 | 0.0 | 0.00 | 0.01 | 0.00 | 73 | 1013.5 |
| 20260508210023 | 76 | 274 | 0.0 | 0.0 | 0.00 | 0.01 | 0.00 | 71 | 1014.2 |
| 20260508204521 | 77 | 274 | 0.0 | 0.0 | 0.00 | 0.01 | 0.00 | 69 | 1014.3 |
| 20260508203019 | 78 | 274 | 0.0 | 0.9 | 0.00 | 0.01 | 0.00 | 69 | 1014.3 |
| 20260508201516 | 78 | 273 | 0.0 | 2.6 | 0.00 | 0.01 | 0.00 | 67 | 1014.3 |
| 20260508200016 | 78 | 281 | 0.0 | 0.9 | 0.00 | 0.01 | 0.00 | 67 | 1014.4 |
| 20260508194514 | 80 | 270 | 0.0 | 1.7 | 0.00 | 0.01 | 0.00 | 67 | 1014.5 |
| 20260508191536 | 79 | 262 | 0.0 | 0.0 | 0.00 | 0.01 | 0.01 | 66 | 1015.0 |
| 20260508190024 | 78 | 274 | 0.0 | 0.0 | 0.00 | 0.01 | 0.01 | 68 | 1015.0 |
| 20260508184521 | 78 | 275 | 0.0 | 0.0 | 0.00 | 0.01 | 0.01 | 66 | 1015.4 |
| 20260508183018 | 77 | 273 | 0.0 | 0.0 | 0.00 | 0.01 | 0.01 | 67 | 1015.4 |
| 20260508181516 | 77 | 275 | 0.0 | 0.0 | 0.00 | 0.01 | 0.01 | 66 | 1015.8 |
| 20260508180018 | 77 | 265 | 0.0 | 0.0 | 0.00 | 0.01 | 0.01 | 69 | 1016.0 |
| 20260508174509 | 76 | 274 | 0.0 | 0.9 | 0.00 | 0.01 | 0.01 | 70 | 1016.4 |
| 20260508173008 | 74 | 270 | 0.0 | 0.9 | 0.00 | 0.01 | 0.01 | 70 | 1016.5 |
| 20260508171513 | 74 | 276 | 0.0 | 1.7 | 0.00 | 0.01 | 0.01 | 71 | 1017.2 |
| 20260508170002 | 74 | 274 | 0.0 | 1.7 | 0.00 | 0.01 | 0.01 | 70 | 1017.4 |
| 20260508164602 | 72 | 264 | 0.0 | 2.6 | 0.00 | 0.01 | 0.01 | 72 | 1017.9 |
| 20260508163100 | 72 | 270 | 0.0 | 0.9 | 0.00 | 0.01 | 0.01 | 71 | 1018.0 |
| 20260508161558 | 74 | 270 | 0.0 | 2.6 | 0.00 | 0.01 | 0.01 | 68 | 1018.2 |
| 20260508160055 | 74 | 270 | 0.0 | 5.2 | 0.00 | 0.01 | 0.01 | 70 | 1018.1 |
| 20260508154557 | 74 | 283 | 0.0 | 3.5 | 0.00 | 0.01 | 0.01 | 70 | 1018.4 |
| 20260508153053 | 74 | 276 | 0.0 | 0.9 | 0.00 | 0.01 | 0.01 | 69 | 1018.4 |
| 20260508151557 | 72 | 283 | 0.0 | 0.0 | 0.00 | 0.01 | 0.01 | 71 | 1018.3 |
| 20260508150045 | 70 | 284 | 0.0 | 0.9 | 0.00 | 0.01 | 0.01 | 76 | 1018.5 |
| 20260508144548 | 69 | 287 | 0.0 | 0.9 | 0.00 | 0.01 | 0.01 | 79 | 1018.4 |
| 20260508143049 | 67 | 281 | 0.0 | 0.0 | 0.00 | 0.01 | 0.01 | 86 | 1018.5 |
| 20260508141534 | 63 | 283 | 0.0 | 0.0 | 0.00 | 0.01 | 0.01 | 91 | 1018.6 |
| 20260508140037 | 62 | 283 | 0.0 | 0.0 | 0.00 | 0.01 | 0.01 | 96 | 1018.6 |
| 20260508134529 | 61 | 283 | 0.0 | 0.0 | 0.00 | 0.01 | 0.01 | 95 | 1018.5 |
| 20260508133026 | 60 | 283 | 0.0 | 0.0 | 0.00 | 0.01 | 0.01 | 96 | 1018.7 |
| 20260508131524 | 59 | 283 | 0.0 | 0.0 | 0.00 | 0.01 | 0.01 | 95 | 1018.8 |
| 20260508130032 | 59 | 283 | 0.0 | 0.0 | 0.00 | 0.01 | 0.01 | 96 | 1019.2 |
| 20260508124531 | 58 | 283 | 0.0 | 0.0 | 0.00 | 0.01 | 0.01 | 96 | 1019.1 |
| 20260508123056 | 58 | 283 | 0.0 | 0.0 | 0.00 | 0.01 | 0.01 | 95 | 1019.2 |
| 20260508121518 | 57 | 283 | 0.0 | 0.0 | 0.00 | 0.01 | 0.01 | 95 | 1018.9 |
| 20260508120018 | 57 | 283 | 0.0 | 0.0 | 0.00 | 0.01 | 0.01 | 95 | 1018.9 |
| 20260508114552 | 58 | 283 | 0.0 | 0.0 | 0.00 | 0.01 | 0.01 | 95 | 1019.1 |
| 20260508113017 | 58 | 283 | 0.0 | 0.0 | 0.00 | 0.01 | 0.01 | 95 | 1019.4 |